K1IC Weather Reports


time (UTC)temp
C
wind
direction
speed
KPH
gust
KPH
rain 1hr
cm
rain 24hr
cm
rain mn
cm
humidity
%
barometer
mb
20260507191417 16 113 12.9 17.7 0.00 0.76 0.61 52 1006.5
20260507190416 17 113 8.0 14.5 0.00 0.76 0.61 49 1006.7
20260507185416 17 270 3.2 6.4 0.00 0.76 0.61 37 1006.8
20260507184416 17 338 1.6 3.2 0.00 0.76 0.61 39 1007.0
20260507183417 17 315 6.4 12.9 0.00 0.76 0.61 38 1007.0
20260507182416 17 315 8.0 12.9 0.00 0.76 0.61 38 1007.1
20260507181416 17 270 1.6 3.2 0.00 0.79 0.61 42 1007.1
20260507180417 16 315 4.8 6.4 0.00 0.81 0.61 39 1007.2
20260507175417 16 315 6.4 8.0 0.00 0.84 0.61 39 1007.3
20260507174416 16 0.0 1.6 0.00 0.86 0.61 38 1007.4
20260507173416 16 315 3.2 6.4 0.00 0.89 0.61 40 1007.5
20260507172416 16 293 4.8 8.0 0.00 0.89 0.61 41 1007.6
20260507171436 16 315 1.6 3.2 0.00 0.91 0.61 42 1008.0
20260507170416 16 90 3.2 6.4 0.00 0.91 0.61 42 1008.1
20260507165416 15 45 4.8 9.7 0.00 0.91 0.61 41 1008.4
20260507164416 15 0 6.4 14.5 0.00 0.91 0.61 41 1008.5
20260507163416 15 338 3.2 8.0 0.00 0.91 0.61 43 1008.7
20260507162416 15 338 6.4 9.7 0.00 0.91 0.61 42 1008.7
20260507161416 15 45 6.4 9.7 0.00 0.91 0.61 42 1008.8
20260507160416 15 293 3.2 6.4 0.00 0.91 0.61 42 1008.9
20260507155416 15 315 4.8 9.7 0.00 0.91 0.61 44 1009.0
20260507154416 15 270 6.4 20.9 0.00 0.91 0.61 43 1009.1
20260507153416 14 0 6.4 14.5 0.00 0.91 0.61 42 1009.1
20260507152416 14 315 8.0 14.5 0.00 0.91 0.61 44 1009.3
20260507151416 14 0 11.3 17.7 0.00 0.91 0.61 44 1009.4
20260507150436 14 315 3.2 8.0 0.00 0.91 0.61 50 1009.4
20260507145416 13 23 8.0 12.9 0.00 0.91 0.61 50 1009.3
20260507144416 13 315 8.0 12.9 0.00 0.91 0.61 52 1009.4
20260507143436 13 315 6.4 17.7 0.00 0.91 0.61 58 1009.4
20260507142416 13 293 6.4 9.7 0.00 0.91 0.61 63 1009.4
20260507141416 13 338 6.4 14.5 0.00 0.91 0.61 65 1009.4
20260507140436 12 23 8.0 12.9 0.00 0.91 0.61 67 1009.4
20260507135416 12 315 3.2 6.4 0.00 0.91 0.61 71 1009.4
20260507134416 11 293 1.6 4.8 0.00 0.91 0.61 75 1009.5
20260507133416 12 338 4.8 12.9 0.00 0.91 0.61 75 1009.5
20260507132416 12 23 3.2 6.4 0.00 0.91 0.61 79 1009.4
20260507131417 11 338 3.2 8.0 0.00 0.91 0.61 82 1009.3
20260507130416 11 315 3.2 8.0 0.00 0.91 0.61 81 1009.5
20260507125436 11 293 3.2 8.0 0.00 0.91 0.61 84 1009.4
20260507124416 10 315 1.6 4.8 0.00 0.91 0.61 85 1009.4
20260507123418 10 315 3.2 6.4 0.00 0.91 0.61 87 1009.5
20260507122416 10 0.0 0.0 0.00 0.91 0.61 87 1009.4
20260507121416 10 0.0 1.6 0.00 0.91 0.61 88 1009.4
20260507120416 9 338 1.6 4.8 0.00 0.91 0.61 88 1009.4
20260507115416 9 315 1.6 3.2 0.00 0.91 0.61 89 1009.2
20260507114416 9 315 3.2 8.0 0.00 0.91 0.61 89 1008.9
20260507113416 9 293 4.8 8.0 0.00 0.91 0.61 90 1008.9
20260507112416 9 0.0 1.6 0.00 0.91 0.61 91 1008.9
20260507111416 9 338 1.6 3.2 0.00 0.91 0.61 92 1008.9
20260507110436 10 315 3.2 6.4 0.00 0.91 0.61 93 1009.0
20260507105415 10 338 1.6 3.2 0.00 0.91 0.61 93 1008.9
20260507104416 10 0.0 1.6 0.03 0.91 0.61 93 1008.6
20260507103416 10 0.0 1.6 0.03 0.91 0.61 93 1008.3
20260507102415 10 0.0 1.6 0.05 0.91 0.61 93 1008.2
20260507101455 10 0.0 0.0 0.05 0.91 0.61 93 1008.0
20260507100415 10 0.0 0.0 0.08 0.91 0.61 93 1008.1
20260507095416 10 0.0 1.6 0.08 0.91 0.61 93 1008.1
20260507094415 10 0.0 0.0 0.08 0.89 0.58 93 1008.2
20260507093416 10 0.0 1.6 0.10 0.89 0.58 93 1008.1
20260507092415 10 0.0 0.0 0.08 0.86 0.56 93 1007.9
20260507091415 10 0.0 1.6 0.08 0.86 0.56 93 1007.5
20260507090415 10 0.0 1.6 0.05 0.84 0.53 92 1007.5
20260507085415 10 315 1.6 1.6 0.08 0.84 0.53 92 1007.6
20260507084415 10 0.0 0.0 0.10 0.81 0.51 92 1007.8
20260507083415 10 0.0 0.0 0.08 0.79 0.48 92 1007.8
20260507082415 10 0.0 0.0 0.10 0.79 0.48 92 1007.9
20260507081415 10 0.0 1.6 0.13 0.79 0.48 92 1007.6
20260507080417 10 0.0 0.0 0.15 0.79 0.48 92 1007.3
20260507075417 10 0.0 0.0 0.15 0.76 0.46 92 1007.9
20260507074416 10 0.0 1.6 0.13 0.71 0.41 92 1007.9
20260507073416 10 293 1.6 3.2 0.15 0.71 0.41 92 1007.5
20260507072416 10 0.0 1.6 0.15 0.69 0.38 91 1007.6
20260507071416 10 0.0 0.0 0.30 0.66 0.36 91 1008.0
20260507070416 10 0.0 1.6 0.33 0.64 0.33 91 1007.7
20260507065416 10 23 1.6 4.8 0.30 0.61 0.30 91 1007.8
20260507064436 10 0.0 1.6 0.28 0.58 0.28 90 1007.1
20260507063416 10 338 1.6 6.4 0.25 0.56 0.25 90 1007.6
20260507062416 11 293 1.6 1.6 0.23 0.53 0.23 88 1007.6
20260507061416 11 0.0 3.2 0.05 0.36 0.08 86 1007.9
20260507060416 11 0.0 1.6 0.00 0.30 0.00 86 1006.6
20260507055416 11 315 4.8 6.4 0.00 0.30 0.00 85 1006.7
20260507054416 11 338 1.6 3.2 0.00 0.30 0.00 85 1006.6
20260507053416 11 0.0 3.2 0.00 0.30 0.00 86 1006.8
20260507052436 11 23 1.6 8.0 0.00 0.30 0.00 86 1006.8
20260507051416 12 315 1.6 3.2 0.00 0.30 0.00 87 1007.0
20260507050417 12 0.0 1.6 0.00 0.30 0.00 88 1007.0
20260507045416 12 0.0 0.0 0.00 0.30 0.00 88 1006.8
20260507044416 12 293 3.2 6.4 0.00 0.30 0.00 88 1007.0
20260507043416 12 315 3.2 6.4 0.00 0.30 0.00 89 1007.3
20260507042417 12 293 1.6 3.2 0.00 0.30 0.00 91 1007.2
20260507041416 13 0.0 1.6 0.00 0.30 0.00 92 1007.2
20260507040416 14 293 3.2 4.8 0.00 0.30 0.00 93 1006.9
20260507035416 14 0.0 0.0 0.00 0.30 0.30 94 1006.6
20260507034416 14 0.0 0.0 0.03 0.30 0.30 94 1006.7
20260507033436 14 0.0 0.0 0.08 0.30 0.30 94 1006.6
20260507032416 14 0.0 0.0 0.10 0.30 0.30 94 1006.5
20260507031416 14 0.0 0.0 0.10 0.30 0.30 94 1006.7
20260507030436 14 0.0 0.0 0.10 0.30 0.30 94 1006.9
20260507025416 14 0.0 0.0 0.13 0.30 0.30 94 1006.8
20260507024415 14 0.0 0.0 0.10 0.28 0.28 94 1007.0
20260507023416 14 315 4.8 6.4 0.05 0.23 0.23 94 1007.0
20260507022415 14 0.0 0.0 0.03 0.20 0.20 94 1006.6
20260507021416 14 0.0 0.0 0.03 0.20 0.20 94 1006.6
20260507020435 14 0.0 0.0 0.03 0.20 0.20 93 1006.8
20260507015415 13 0.0 0.0 0.00 0.18 0.18 93 1006.8
20260507014415 13 0.0 0.0 0.00 0.18 0.18 93 1006.8
20260507013416 13 0.0 0.0 0.00 0.18 0.18 93 1006.7
20260507012415 13 0.0 0.0 0.00 0.18 0.18 93 1006.7
20260507011435 13 0.0 0.0 0.00 0.18 0.18 93 1006.7
20260507010415 13 0.0 0.0 0.00 0.18 0.18 93 1006.6
20260507005415 13 0.0 0.0 0.00 0.18 0.18 93 1006.6
20260507004415 13 0.0 0.0 0.00 0.18 0.18 93 1006.4
20260507003415 13 0.0 0.0 0.00 0.18 0.18 93 1006.6
20260507002415 14 0.0 0.0 0.00 0.18 0.18 92 1006.4
20260507001415 14 0.0 0.0 0.00 0.18 0.18 92 1006.3
20260507000415 14 0.0 0.0 0.00 0.18 0.18 93 1006.4
20260506235417 14 0.0 0.0 0.00 0.18 0.18 93 1006.3
20260506234417 14 0.0 0.0 0.00 0.18 0.18 93 1006.4
20260506233417 14 0.0 0.0 0.00 0.18 0.18 93 1006.4
20260506232417 15 0.0 0.0 0.00 0.18 0.18 93 1006.3
20260506231417 15 0.0 0.0 0.00 0.18 0.18 93 1006.2
20260506230437 14 0.0 0.0 0.00 0.18 0.18 93 1006.2
20260506225419 14 0.0 0.0 0.00 0.18 0.18 92 1006.2
20260506224417 14 0.0 0.0 0.00 0.18 0.18 92 1006.1
20260506223417 14 0.0 0.0 0.00 0.18 0.18 92 1006.1
20260506222417 14 0.0 0.0 0.00 0.18 0.18 92 1006.0
20260506221417 14 0.0 0.0 0.00 0.18 0.18 92 1005.9
20260506220417 14 0.0 0.0 0.00 0.18 0.18 92 1005.9
20260506215417 14 0.0 0.0 0.00 0.18 0.18 92 1005.8
20260506214437 13 0.0 0.0 0.00 0.18 0.18 92 1005.8
20260506213417 13 0.0 0.0 0.00 0.18 0.18 92 1005.8
20260506212417 13 0.0 0.0 0.00 0.18 0.18 92 1005.8
20260506211417 13 0.0 0.0 0.00 0.18 0.18 92 1005.6
20260506210417 14 0.0 0.0 0.00 0.18 0.18 91 1005.6
20260506205417 14 0.0 0.0 0.00 0.18 0.18 91 1005.7
20260506204417 14 0.0 0.0 0.00 0.18 0.18 91 1005.7
20260506203437 14 0.0 0.0 0.00 0.18 0.18 91 1005.8
20260506202437 15 0.0 0.0 0.03 0.18 0.18 91 1006.0
20260506201417 15 0.0 0.0 0.03 0.18 0.18 91 1006.2
20260506200417 14 0.0 0.0 0.03 0.18 0.18 90 1006.3
20260506195438 15 0.0 0.0 0.03 0.18 0.18 90 1006.4
20260506194417 15 0.0 0.0 0.03 0.18 0.18 91 1006.3
20260506193417 15 0.0 0.0 0.03 0.18 0.18 90 1006.2
20260506192417 15 0.0 0.0 0.00 0.15 0.15 90 1006.4